Location: Aalen
(48.8330°N, 10.1000°E)
Time: 01:21:07
(UTC+02:00)

Transit 4A - Pass Details

Date: 08 August 2021
Orbit: 870 x 974 km, 66.8° (Epoch: 26 September)

Event Time Altitude Azimuth Distance (km) Brightness Sun altitude
Rises 05:14:22 0° 319° (NW) 3,468 10.8 -7.7°
Reaches altitude 10° 05:17:55 10° 340° (NNW) 2,532 10.4 -7.2°
Maximum altitude 05:21:27 16° 18° (NNE) 2,130 10.6 -6.7°
Drops below altitude 10° 05:25:01 10° 56° (NE) 2,551 12.1 -6.2°
Sets 05:28:36 0° 77° (ENE) 3,506 12.5 -5.7°
